UBAKUSAT (43467 NORAD) Tracking and Keplerian Element Data

This shows tracking and keplerian element data for the satellite.

Feedback or suggestion? Click here.




ElementValue
Catalog43467
NameUBAKUSAT
Epoch Orbit11776
Epoch Day154.5696995
Epoch Year2020
RAAN358.3019
Inclination51.6335
Eccentricity1.92E-05
Argument of Perigee158.4807
Mean Anonmoly201.6201
Mean Motion15.74766768
Decay Rate0.00029762
L11 43467U 98067NQ 20154.56969950 .00029762 00000-0 20138-3 0 9998
L22 43467 51.6335 358.3019 0000192 158.4807 201.6201 15.74766768117764

Live tracking and technical data element details for UBAKUSAT (NORAD 43467). UBAKUSAT can be tracked NOW for your location showing map with azimuth and elevation plus other details from your city location.

Track the satellite on the map from your city or location and see movement details for azimuth, elevation, latitude, longitude, range, height, and movement on the map or in text.







IsCatalogInMostPopularTable: catalog: 43467, numindb: 407
Update: records affected: 1



GetName: 43467 UBAKUSAT

Hit Count: updated at: Thu, 04 Jun 2020 08:42:32 GMT